| time (UTC) | temp C | wind direction | speed KPH | gust KPH | rain 1hr cm | rain 24hr cm | rain mn cm | humidity % | barometer mb |
| 20260506073043 | 6 | 34 | 4.8 | 6.4 | 0.00 | 0.00 | 0.00 | 69 | 987.8 |
| 20260506072543 | 6 | 19 | 4.8 | 6.4 | 0.00 | 0.00 | 0.00 | 70 | 988.1 |
| 20260506072042 | 6 | 29 | 1.6 | 3.2 | 0.00 | 0.00 | 0.00 | 71 | 988.1 |
| 20260506071542 | 6 | 125 | 1.6 | 4.8 | 0.00 | 0.00 | 0.00 | 70 | 988.1 |
| 20260506071043 | 6 | 60 | 1.6 | 3.2 | 0.00 | 0.00 | 0.00 | 72 | 988.1 |
| 20260506070543 | 6 | 18 | 4.8 | 8.0 | 0.00 | 0.00 | 0.00 | 70 | 988.1 |
| 20260506062043 | 5 | 15 | 0.0 | 1.6 | 0.00 | 0.00 | 0.00 | 79 | 988.1 |
| 20260506061542 | 5 | 63 | 3.2 | 3.2 | 0.00 | 0.00 | 0.00 | 79 | 987.8 |
| 20260506061042 | 5 | 44 | 3.2 | 4.8 | 0.00 | 0.00 | 0.00 | 80 | 988.1 |
| 20260506060542 | 5 | 52 | 0.0 | 1.6 | 0.00 | 0.00 | 0.00 | 81 | 987.8 |
| 20260506051043 | 4 | 38 | 0.0 | 1.6 | 0.00 | 0.00 | 0.00 | 80 | 988.1 |
| 20260506050542 | 4 | 44 | 1.6 | 1.6 | 0.00 | 0.00 | 0.00 | 80 | 987.8 |
| 20260506045043 | 3 | 58 | 0.0 | 0.0 | 0.00 | 0.00 | 0.00 | 81 | 987.8 |
| 20260506044542 | 3 | 46 | 0.0 | 1.6 | 0.00 | 0.00 | 0.00 | 82 | 987.8 |
| 20260506044043 | 3 | 51 | 0.0 | 0.0 | 0.00 | 0.00 | 0.00 | 82 | 988.1 |
| 20260506043542 | 3 | 37 | 0.0 | 0.0 | 0.00 | 0.00 | 0.00 | 82 | 987.8 |
| 20260506043043 | 3 | 62 | 0.0 | 0.0 | 0.00 | 0.00 | 0.00 | 81 | 987.8 |
| 20260506042543 | 3 | 108 | 3.2 | 3.2 | 0.00 | 0.00 | 0.00 | 81 | 987.8 |
| 20260506042042 | 3 | 93 | 0.0 | 0.0 | 0.00 | 0.00 | 0.00 | 80 | 987.8 |
| 20260506041542 | 3 | 48 | 1.6 | 3.2 | 0.00 | 0.00 | 0.00 | 80 | 987.8 |
| 20260506041042 | 3 | 66 | 0.0 | 0.0 | 0.00 | 0.00 | 0.00 | 80 | 987.8 |
| 20260506040542 | 3 | 64 | 0.0 | 1.6 | 0.00 | 0.00 | 0.00 | 80 | 987.8 |
| 20260506040042 | 3 | 45 | 0.0 | 0.0 | 0.00 | 0.00 | 0.00 | 80 | 987.8 |
| 20260506035542 | 3 | 7 | 0.0 | 0.0 | 0.00 | 0.00 | 0.00 | 80 | 987.8 |
| 20260506035044 | 4 | 42 | 0.0 | 1.6 | 0.00 | 0.00 | 0.00 | 80 | 987.8 |
| 20260506034542 | 4 | 53 | 0.0 | 0.0 | 0.00 | 0.00 | 0.00 | 80 | 988.1 |
| 20260506034043 | 4 | 77 | 0.0 | 1.6 | 0.00 | 0.00 | 0.00 | 80 | 987.8 |
| 20260506033542 | 4 | 56 | 0.0 | 1.6 | 0.00 | 0.00 | 0.00 | 79 | 987.8 |
| 20260506033042 | 4 | 60 | 0.0 | 1.6 | 0.00 | 0.00 | 0.00 | 79 | 988.1 |
| 20260506032543 | 4 | 72 | 1.6 | 3.2 | 0.00 | 0.00 | 0.00 | 78 | 988.1 |
| 20260506032042 | 4 | 47 | 0.0 | 0.0 | 0.00 | 0.00 | 0.00 | 78 | 988.1 |
| 20260506031542 | 4 | 62 | 0.0 | 0.0 | 0.00 | 0.00 | 0.00 | 77 | 988.1 |
| 20260506031043 | 5 | 26 | 1.6 | 1.6 | 0.00 | 0.00 | 0.00 | 77 | 988.1 |
| 20260506030542 | 4 | 63 | 3.2 | 3.2 | 0.00 | 0.00 | 0.00 | 77 | 988.1 |
| 20260506030042 | 5 | 27 | 0.0 | 1.6 | 0.00 | 0.00 | 0.00 | 77 | 988.1 |
| 20260506025543 | 5 | 52 | 0.0 | 1.6 | 0.00 | 0.00 | 0.00 | 77 | 988.1 |
| 20260506025043 | 5 | 58 | 1.6 | 3.2 | 0.00 | 0.00 | 0.00 | 77 | 988.1 |
| 20260506024542 | 5 | 63 | 0.0 | 1.6 | 0.00 | 0.00 | 0.00 | 77 | 988.1 |
| 20260506024043 | 5 | 88 | 1.6 | 3.2 | 0.00 | 0.00 | 0.00 | 77 | 988.1 |
| 20260506023543 | 5 | 57 | 0.0 | 1.6 | 0.00 | 0.00 | 0.00 | 77 | 988.1 |
| 20260506023042 | 5 | 46 | 1.6 | 3.2 | 0.00 | 0.00 | 0.00 | 77 | 987.8 |
| 20260506022543 | 5 | 36 | 1.6 | 3.2 | 0.00 | 0.00 | 0.00 | 77 | 988.1 |
| 20260506022042 | 5 | 39 | 0.0 | 0.0 | 0.00 | 0.00 | 0.00 | 76 | 987.8 |
| 20260506021542 | 5 | 102 | 0.0 | 1.6 | 0.00 | 0.00 | 0.00 | 76 | 988.1 |
| 20260506021043 | 5 | 90 | 1.6 | 3.2 | 0.00 | 0.00 | 0.00 | 75 | 988.1 |
| 20260506020543 | 5 | 11 | 1.6 | 3.2 | 0.00 | 0.00 | 0.00 | 75 | 988.1 |
| 20260506020043 | 5 | 31 | 1.6 | 3.2 | 0.00 | 0.00 | 0.00 | 75 | 988.1 |
| 20260506015543 | 5 | 31 | 1.6 | 3.2 | 0.00 | 0.00 | 0.00 | 75 | 988.1 |
| 20260506015043 | 5 | 58 | 1.6 | 1.6 | 0.00 | 0.00 | 0.00 | 75 | 988.1 |
| 20260506014542 | 5 | 74 | 1.6 | 3.2 | 0.00 | 0.00 | 0.00 | 74 | 988.1 |
| 20260506014042 | 5 | 62 | 1.6 | 3.2 | 0.00 | 0.00 | 0.00 | 74 | 988.1 |
| 20260506013543 | 5 | 23 | 1.6 | 3.2 | 0.00 | 0.00 | 0.00 | 74 | 988.1 |
| 20260506013043 | 5 | 58 | 1.6 | 3.2 | 0.00 | 0.00 | 0.00 | 74 | 988.1 |
| 20260506012543 | 5 | 39 | 3.2 | 4.8 | 0.00 | 0.00 | 0.00 | 74 | 988.5 |
| 20260506012042 | 5 | 56 | 4.8 | 6.4 | 0.00 | 0.00 | 0.00 | 73 | 988.5 |
| 20260506011543 | 6 | 38 | 4.8 | 6.4 | 0.00 | 0.00 | 0.00 | 73 | 988.5 |
| 20260506011043 | 6 | 80 | 0.0 | 1.6 | 0.00 | 0.00 | 0.00 | 74 | 988.1 |
| 20260506010543 | 6 | 28 | 0.0 | 1.6 | 0.00 | 0.00 | 0.00 | 74 | 988.5 |
| 20260506010043 | 6 | 67 | 0.0 | 1.6 | 0.00 | 0.00 | 0.00 | 74 | 988.5 |
| 20260506005543 | 6 | 69 | 1.6 | 3.2 | 0.00 | 0.00 | 0.00 | 73 | 988.5 |
| 20260506005043 | 6 | 70 | 1.6 | 3.2 | 0.00 | 0.00 | 0.00 | 73 | 988.5 |
| 20260506004542 | 6 | 96 | 0.0 | 1.6 | 0.00 | 0.00 | 0.00 | 73 | 988.5 |
| 20260506004043 | 6 | 62 | 0.0 | 1.6 | 0.00 | 0.00 | 0.00 | 72 | 988.5 |
| 20260506003542 | 6 | 33 | 3.2 | 6.4 | 0.00 | 0.00 | 0.00 | 71 | 988.5 |
| 20260506003042 | 6 | 20 | 1.6 | 3.2 | 0.00 | 0.00 | 0.00 | 71 | 988.5 |
| 20260506002545 | 6 | 110 | 1.6 | 3.2 | 0.00 | 0.00 | 0.00 | 70 | 988.5 |
| 20260506002042 | 6 | 71 | 4.8 | 4.8 | 0.00 | 0.00 | 0.00 | 71 | 988.5 |
| 20260506001543 | 6 | 64 | 1.6 | 3.2 | 0.00 | 0.00 | 0.00 | 71 | 988.5 |
| 20260506001044 | 6 | 49 | 4.8 | 6.4 | 0.00 | 0.00 | 0.00 | 71 | 988.5 |
| 20260506000542 | 6 | 26 | 3.2 | 3.2 | 0.00 | 0.00 | 0.00 | 71 | 988.1 |
| 20260506000043 | 6 | 48 | 3.2 | 4.8 | 0.00 | 0.00 | 0.00 | 71 | 988.5 |
| 20260505235543 | 6 | 28 | 3.2 | 4.8 | 0.00 | 0.00 | 0.00 | 72 | 988.5 |
| 20260505235043 | 6 | 54 | 1.6 | 3.2 | 0.00 | 0.00 | 0.00 | 72 | 988.5 |
| 20260505234542 | 6 | 52 | 3.2 | 4.8 | 0.00 | 0.00 | 0.00 | 73 | 988.5 |
| 20260505234042 | 6 | 34 | 3.2 | 4.8 | 0.00 | 0.00 | 0.00 | 72 | 988.5 |
| 20260505233542 | 6 | 84 | 0.0 | 0.0 | 0.00 | 0.00 | 0.00 | 73 | 988.5 |
| 20260505233043 | 6 | 92 | 1.6 | 3.2 | 0.00 | 0.00 | 0.00 | 72 | 988.5 |
| 20260505232542 | 6 | 160 | 4.8 | 8.0 | 0.00 | 0.00 | 0.00 | 72 | 988.5 |
| 20260505232042 | 6 | 60 | 0.0 | 1.6 | 0.00 | 0.00 | 0.00 | 72 | 988.5 |
| 20260505231543 | 6 | 30 | 3.2 | 3.2 | 0.00 | 0.00 | 0.00 | 72 | 988.5 |
| 20260505231042 | 6 | 16 | 1.6 | 3.2 | 0.00 | 0.00 | 0.00 | 71 | 988.8 |
| 20260505230545 | 6 | 12 | 1.6 | 3.2 | 0.00 | 0.00 | 0.00 | 72 | 988.5 |
| 20260505230042 | 6 | 39 | 0.0 | 1.6 | 0.00 | 0.00 | 0.00 | 72 | 988.5 |
| 20260505225542 | 6 | 17 | 3.2 | 3.2 | 0.00 | 0.00 | 0.00 | 72 | 988.5 |
| 20260505225043 | 6 | 52 | 1.6 | 3.2 | 0.00 | 0.00 | 0.00 | 72 | 988.5 |
| 20260505224543 | 6 | 24 | 3.2 | 3.2 | 0.00 | 0.00 | 0.00 | 71 | 988.8 |
| 20260505224042 | 6 | 72 | 3.2 | 4.8 | 0.00 | 0.00 | 0.00 | 71 | 988.8 |
| 20260505223542 | 6 | 77 | 0.0 | 1.6 | 0.00 | 0.00 | 0.00 | 70 | 988.8 |
| 20260505223044 | 6 | 32 | 1.6 | 3.2 | 0.00 | 0.00 | 0.00 | 70 | 988.8 |
| 20260505222545 | 6 | 45 | 3.2 | 3.2 | 0.00 | 0.00 | 0.00 | 70 | 988.8 |
| 20260505222043 | 6 | 35 | 4.8 | 6.4 | 0.00 | 0.00 | 0.00 | 69 | 988.8 |
| 20260505221543 | 6 | 28 | 3.2 | 3.2 | 0.00 | 0.00 | 0.00 | 70 | 988.8 |
| 20260505221043 | 6 | 25 | 4.8 | 4.8 | 0.00 | 0.00 | 0.00 | 70 | 988.8 |
| 20260505220543 | 6 | 63 | 4.8 | 6.4 | 0.00 | 0.00 | 0.00 | 69 | 988.8 |
| 20260505220043 | 6 | 55 | 3.2 | 3.2 | 0.00 | 0.00 | 0.00 | 69 | 988.8 |
| 20260505215543 | 6 | 35 | 3.2 | 6.4 | 0.00 | 0.00 | 0.00 | 69 | 988.8 |
| 20260505215044 | 6 | 74 | 1.6 | 3.2 | 0.00 | 0.00 | 0.00 | 70 | 988.8 |
| 20260505214544 | 6 | 53 | 3.2 | 3.2 | 0.00 | 0.00 | 0.00 | 69 | 988.8 |
| 20260505214043 | 6 | 62 | 4.8 | 4.8 | 0.00 | 0.00 | 0.00 | 69 | 988.5 |
| 20260505213543 | 6 | 39 | 4.8 | 6.4 | 0.00 | 0.00 | 0.00 | 69 | 988.8 |
| 20260505213042 | 6 | 12 | 3.2 | 4.8 | 0.00 | 0.00 | 0.00 | 69 | 988.5 |
| 20260505212545 | 6 | 37 | 4.8 | 4.8 | 0.00 | 0.00 | 0.00 | 69 | 988.8 |
| 20260505212043 | 6 | 125 | 1.6 | 3.2 | 0.00 | 0.00 | 0.00 | 69 | 988.5 |
| 20260505211543 | 6 | 71 | 4.8 | 8.0 | 0.00 | 0.00 | 0.00 | 70 | 988.5 |
| 20260505211043 | 6 | 20 | 3.2 | 4.8 | 0.00 | 0.00 | 0.00 | 69 | 988.8 |
| 20260505210543 | 6 | 46 | 6.4 | 9.7 | 0.00 | 0.00 | 0.00 | 69 | 988.5 |
| 20260505210043 | 6 | 30 | 3.2 | 4.8 | 0.00 | 0.00 | 0.00 | 69 | 988.5 |
| 20260505205543 | 6 | 51 | 4.8 | 8.0 | 0.00 | 0.00 | 0.00 | 68 | 988.8 |
| 20260505205046 | 6 | 24 | 3.2 | 6.4 | 0.00 | 0.00 | 0.00 | 69 | 988.5 |
| 20260505204543 | 6 | 52 | 6.4 | 8.0 | 0.00 | 0.00 | 0.00 | 68 | 988.8 |
| 20260505204043 | 6 | 29 | 1.6 | 4.8 | 0.00 | 0.00 | 0.00 | 68 | 988.5 |
| 20260505203543 | 7 | 118 | 6.4 | 8.0 | 0.00 | 0.00 | 0.00 | 67 | 988.5 |
| 20260505203042 | 7 | 53 | 6.4 | 11.3 | 0.00 | 0.00 | 0.00 | 67 | 988.5 |
| 20260505202543 | 7 | 49 | 4.8 | 8.0 | 0.00 | 0.00 | 0.00 | 68 | 988.5 |
| 20260505202043 | 7 | 46 | 6.4 | 8.0 | 0.00 | 0.00 | 0.00 | 67 | 988.1 |
| 20260505201543 | 7 | 31 | 4.8 | 8.0 | 0.00 | 0.00 | 0.00 | 67 | 988.5 |
| 20260505201042 | 7 | 109 | 6.4 | 11.3 | 0.00 | 0.00 | 0.00 | 67 | 988.1 |
| 20260505200543 | 7 | 27 | 9.7 | 12.9 | 0.00 | 0.00 | 0.00 | 67 | 988.1 |
| 20260505200046 | 7 | 30 | 4.8 | 8.0 | 0.00 | 0.00 | 0.00 | 66 | 988.1 |
| 20260505195545 | 7 | 347 | 8.0 | 9.7 | 0.00 | 0.00 | 0.00 | 67 | 988.1 |
| 20260505195045 | 7 | 119 | 6.4 | 8.0 | 0.00 | 0.00 | 0.00 | 66 | 988.5 |
| 20260505194542 | 7 | 35 | 6.4 | 9.7 | 0.00 | 0.00 | 0.00 | 66 | 988.1 |
| 20260505194043 | 7 | 17 | 8.0 | 9.7 | 0.00 | 0.00 | 0.00 | 66 | 988.5 |
| 20260505193542 | 7 | 98 | 8.0 | 11.3 | 0.00 | 0.00 | 0.00 | 66 | 988.1 |
| 20260505193043 | 7 | 53 | 8.0 | 11.3 | 0.00 | 0.00 | 0.00 | 66 | 988.1 |
| 20260505192542 | 7 | 131 | 3.2 | 4.8 | 0.00 | 0.00 | 0.00 | 67 | 988.1 |
| 20260505192043 | 7 | 17 | 4.8 | 6.4 | 0.00 | 0.00 | 0.00 | 66 | 988.1 |
| 20260505191544 | 7 | 86 | 8.0 | 11.3 | 0.00 | 0.00 | 0.00 | 66 | 988.1 |
| 20260505191043 | 7 | 21 | 8.0 | 11.3 | 0.00 | 0.00 | 0.00 | 65 | 988.1 |
| 20260505190542 | 7 | 69 | 11.3 | 12.9 | 0.00 | 0.00 | 0.00 | 67 | 987.8 |
| 20260505190043 | 7 | 45 | 11.3 | 16.1 | 0.00 | 0.00 | 0.00 | 66 | 988.1 |
| 20260505185543 | 7 | 69 | 4.8 | 8.0 | 0.00 | 0.00 | 0.00 | 68 | 988.1 |
| 20260505185043 | 7 | 54 | 12.9 | 16.1 | 0.00 | 0.00 | 0.00 | 67 | 987.8 |
| 20260505184542 | 7 | 113 | 6.4 | 8.0 | 0.00 | 0.00 | 0.00 | 67 | 987.8 |
| 20260505184043 | 7 | 149 | 4.8 | 8.0 | 0.00 | 0.00 | 0.00 | 67 | 987.5 |
| 20260505183543 | 8 | 40 | 4.8 | 8.0 | 0.00 | 0.00 | 0.00 | 68 | 987.8 |
| 20260505183043 | 8 | 66 | 8.0 | 11.3 | 0.00 | 0.00 | 0.00 | 67 | 987.8 |
| 20260505182546 | 8 | 88 | 11.3 | 14.5 | 0.00 | 0.00 | 0.00 | 67 | 987.8 |
| 20260505182043 | 8 | 34 | 8.0 | 8.0 | 0.00 | 0.00 | 0.00 | 68 | 987.5 |
| 20260505181543 | 8 | 65 | 9.7 | 11.3 | 0.00 | 0.00 | 0.00 | 66 | 987.8 |
| 20260505181044 | 8 | 38 | 8.0 | 8.0 | 0.00 | 0.00 | 0.00 | 66 | 987.8 |
| 20260505180543 | 8 | 47 | 14.5 | 19.3 | 0.00 | 0.00 | 0.00 | 65 | 987.8 |
| 20260505180043 | 8 | 19 | 12.9 | 16.1 | 0.00 | 0.00 | 0.00 | 64 | 986.8 |
| 20260505175543 | 8 | 43 | 9.7 | 11.3 | 0.00 | 0.00 | 0.00 | 65 | 987.8 |
| 20260505175043 | 9 | 13 | 11.3 | 11.3 | 0.00 | 0.00 | 0.00 | 64 | 987.5 |
| 20260505174544 | 8 | 47 | 4.8 | 8.0 | 0.00 | 0.00 | 0.00 | 64 | 987.8 |
| 20260505174044 | 8 | 87 | 6.4 | 9.7 | 0.00 | 0.00 | 0.00 | 65 | 987.8 |
| 20260505173543 | 8 | 64 | 3.2 | 6.4 | 0.00 | 0.00 | 0.00 | 65 | 987.5 |
| 20260505173046 | 8 | 55 | 14.5 | 19.3 | 0.00 | 0.00 | 0.00 | 63 | 987.5 |
| 20260505172542 | 8 | 35 | 6.4 | 12.9 | 0.00 | 0.00 | 0.00 | 65 | 987.5 |
| 20260505172044 | 8 | 86 | 4.8 | 11.3 | 0.00 | 0.00 | 0.00 | 64 | 987.5 |
| 20260505171543 | 8 | 27 | 4.8 | 9.7 | 0.00 | 0.00 | 0.00 | 65 | 987.5 |
| 20260505171042 | 8 | 104 | 6.4 | 11.3 | 0.00 | 0.00 | 0.00 | 64 | 987.5 |
| 20260505170542 | 8 | 116 | 8.0 | 12.9 | 0.00 | 0.00 | 0.00 | 65 | 987.5 |
| 20260505170043 | 9 | 54 | 9.7 | 14.5 | 0.00 | 0.00 | 0.00 | 65 | 987.5 |
| 20260505165542 | 9 | 25 | 11.3 | 12.9 | 0.00 | 0.00 | 0.00 | 63 | 987.5 |
| 20260505165042 | 9 | 158 | 14.5 | 20.9 | 0.00 | 0.00 | 0.00 | 63 | 987.5 |
| 20260505164543 | 9 | 13 | 11.3 | 17.7 | 0.00 | 0.00 | 0.00 | 63 | 987.5 |
| 20260505164043 | 10 | 62 | 14.5 | 24.1 | 0.00 | 0.00 | 0.00 | 64 | 987.5 |
| 20260505163152 | 10 | 63 | 12.9 | 19.3 | 0.00 | 0.00 | 0.00 | 64 | 987.5 |
| 20260505162543 | 10 | 57 | 8.0 | 9.7 | 0.00 | 0.00 | 0.00 | 66 | 987.5 |
| 20260505162043 | 10 | 55 | 9.7 | 14.5 | 0.00 | 0.00 | 0.00 | 64 | 987.1 |
| 20260505161543 | 10 | 48 | 11.3 | 16.1 | 0.00 | 0.00 | 0.00 | 64 | 987.1 |
| 20260505161043 | 10 | 55 | 4.8 | 8.0 | 0.00 | 0.00 | 0.00 | 67 | 987.1 |
| 20260505160543 | 10 | 10 | 12.9 | 19.3 | 0.00 | 0.00 | 0.00 | 65 | 987.1 |
| 20260505153043 | 10 | 107 | 11.3 | 17.7 | 0.00 | 0.00 | 0.00 | 65 | 987.1 |
| 20260505152542 | 10 | 6 | 19.3 | 22.5 | 0.00 | 0.00 | 0.00 | 65 | 987.5 |
| 20260505152042 | 10 | 16 | 14.5 | 17.7 | 0.00 | 0.00 | 0.00 | 65 | 987.1 |
| 20260505151544 | 10 | 37 | 9.7 | 14.5 | 0.00 | 0.00 | 0.00 | 65 | 987.1 |
| 20260505151045 | 10 | 4 | 9.7 | 14.5 | 0.00 | 0.00 | 0.00 | 66 | 987.5 |
| 20260505150544 | 10 | 139 | 4.8 | 6.4 | 0.00 | 0.00 | 0.00 | 67 | 987.5 |
| 20260505140543 | 11 | 71 | 19.3 | 24.1 | 0.00 | 0.00 | 0.00 | 64 | 987.1 |
| 20260505124542 | 11 | 35 | 14.5 | 20.9 | 0.00 | 0.00 | 0.00 | 58 | 986.5 |
| 20260505124043 | 12 | 32 | 11.3 | 14.5 | 0.00 | 0.00 | 0.00 | 49 | 986.5 |
| 20260505123544 | 12 | 195 | 3.2 | 3.2 | 0.00 | 0.00 | 0.00 | 43 | 986.5 |
| 20260505123042 | 12 | 345 | 3.2 | 4.8 | 0.00 | 0.00 | 0.00 | 41 | 986.5 |
| 20260505122543 | 12 | 85 | 3.2 | 4.8 | 0.00 | 0.00 | 0.00 | 44 | 986.5 |
| 20260505122042 | 12 | 45 | 6.4 | 8.0 | 0.00 | 0.00 | 0.00 | 44 | 986.5 |
| 20260505121544 | 12 | 333 | 1.6 | 3.2 | 0.00 | 0.00 | 0.00 | 44 | 986.5 |
| 20260505121044 | 12 | 41 | 4.8 | 6.4 | 0.00 | 0.00 | 0.00 | 43 | 986.5 |
| 20260505120543 | 13 | 337 | 1.6 | 3.2 | 0.00 | 0.00 | 0.00 | 40 | 986.5 |
| 20260505120044 | 12 | 23 | 1.6 | 3.2 | 0.00 | 0.00 | 0.00 | 47 | 986.5 |
| 20260505115543 | 12 | 28 | 0.0 | 1.6 | 0.00 | 0.00 | 0.00 | 46 | 986.5 |
| 20260505115043 | 11 | 229 | 4.8 | 6.4 | 0.00 | 0.00 | 0.00 | 46 | 986.5 |
| 20260505114542 | 11 | 70 | 3.2 | 4.8 | 0.00 | 0.00 | 0.00 | 47 | 986.5 |
| 20260505114044 | 11 | 23 | 4.8 | 8.0 | 0.00 | 0.00 | 0.00 | 50 | 986.5 |
| 20260505113542 | 11 | 32 | 6.4 | 8.0 | 0.00 | 0.00 | 0.00 | 49 | 986.5 |
| 20260505113043 | 11 | 132 | 3.2 | 4.8 | 0.00 | 0.00 | 0.00 | 49 | 986.5 |
| 20260505112543 | 11 | 59 | 6.4 | 8.0 | 0.00 | 0.00 | 0.00 | 46 | 986.5 |
| 20260505112043 | 11 | 350 | 4.8 | 8.0 | 0.00 | 0.00 | 0.00 | 48 | 986.5 |
| 20260505111542 | 12 | 21 | 8.0 | 9.7 | 0.00 | 0.00 | 0.00 | 47 | 986.5 |
| 20260505111042 | 12 | 151 | 4.8 | 6.4 | 0.00 | 0.00 | 0.00 | 45 | 986.5 |
| 20260505110542 | 12 | 126 | 0.0 | 3.2 | 0.00 | 0.00 | 0.00 | 45 | 986.5 |
| 20260505102042 | 11 | 65 | 11.3 | 16.1 | 0.00 | 0.00 | 0.00 | 53 | 986.5 |
| 20260505101542 | 12 | 2 | 6.4 | 8.0 | 0.00 | 0.00 | 0.00 | 55 | 986.5 |
| 20260505101042 | 11 | 73 | 4.8 | 4.8 | 0.00 | 0.00 | 0.00 | 56 | 986.5 |
| 20260505100542 | 11 | 60 | 4.8 | 6.4 | 0.00 | 0.00 | 0.00 | 52 | 986.5 |
| 20260505100043 | 11 | 293 | 3.2 | 3.2 | 0.00 | 0.00 | 0.00 | 52 | 986.5 |
| 20260505095542 | 11 | 13 | 1.6 | 3.2 | 0.00 | 0.00 | 0.00 | 53 | 986.5 |
| 20260505095042 | 11 | 124 | 0.0 | 0.0 | 0.00 | 0.00 | 0.00 | 51 | 986.5 |
| 20260505094542 | 10 | 61 | 1.6 | 3.2 | 0.00 | 0.00 | 0.00 | 53 | 986.5 |
| 20260505094044 | 11 | 66 | 4.8 | 8.0 | 0.00 | 0.00 | 0.00 | 52 | 986.5 |
| 20260505093542 | 11 | 52 | 1.6 | 1.6 | 0.00 | 0.00 | 0.00 | 55 | 986.5 |
| 20260505093044 | 11 | 324 | 3.2 | 3.2 | 0.00 | 0.00 | 0.00 | 53 | 986.5 |
| 20260505092544 | 11 | 50 | 1.6 | 3.2 | 0.00 | 0.00 | 0.00 | 54 | 986.5 |
| 20260505092043 | 10 | 18 | 4.8 | 8.0 | 0.00 | 0.00 | 0.00 | 54 | 986.5 |
| 20260505091543 | 10 | 46 | 4.8 | 6.4 | 0.00 | 0.00 | 0.00 | 59 | 986.5 |
| 20260505091042 | 10 | 45 | 6.4 | 8.0 | 0.00 | 0.00 | 0.00 | 58 | 986.5 |
| 20260505090543 | 10 | 6 | 8.0 | 11.3 | 0.00 | 0.00 | 0.00 | 57 | 986.5 |
| 20260505090042 | 10 | 35 | 3.2 | 3.2 | 0.00 | 0.00 | 0.00 | 57 | 986.5 |
| 20260505085542 | 10 | 32 | 1.6 | 3.2 | 0.00 | 0.00 | 0.00 | 56 | 986.5 |
| 20260505085042 | 10 | 28 | 3.2 | 3.2 | 0.00 | 0.00 | 0.00 | 57 | 986.5 |
| 20260505084542 | 10 | 2 | 3.2 | 4.8 | 0.00 | 0.00 | 0.00 | 59 | 986.1 |
| 20260505084045 | 10 | 69 | 4.8 | 6.4 | 0.00 | 0.00 | 0.00 | 58 | 986.1 |
| 20260505083543 | 10 | 49 | 6.4 | 9.7 | 0.00 | 0.00 | 0.00 | 59 | 986.1 |
| 20260505083043 | 10 | 42 | 4.8 | 4.8 | 0.00 | 0.00 | 0.00 | 61 | 986.5 |
| 20260505082542 | 10 | 327 | 3.2 | 4.8 | 0.00 | 0.00 | 0.00 | 61 | 986.1 |
| 20260505082042 | 10 | 20 | 3.2 | 4.8 | 0.00 | 0.00 | 0.00 | 64 | 986.1 |
| 20260505081545 | 10 | 5 | 4.8 | 6.4 | 0.00 | 0.00 | 0.00 | 64 | 986.1 |
| 20260505081044 | 10 | 339 | 4.8 | 6.4 | 0.00 | 0.00 | 0.00 | 64 | 986.1 |
| 20260505080542 | 10 | 19 | 4.8 | 4.8 | 0.00 | 0.00 | 0.00 | 63 | 986.1 |
| 20260505080042 | 10 | 45 | 1.6 | 3.2 | 0.00 | 0.00 | 0.00 | 64 | 986.1 |
| 20260505075542 | 10 | 7 | 4.8 | 6.4 | 0.00 | 0.00 | 0.00 | 63 | 986.1 |
| 20260505075046 | 11 | 10 | 8.0 | 9.7 | 0.00 | 0.00 | 0.00 | 59 | 986.1 |
| 20260505074543 | 10 | 46 | 8.0 | 8.0 | 0.00 | 0.00 | 0.00 | 63 | 986.1 |
| 20260505074042 | 11 | 6 | 3.2 | 8.0 | 0.00 | 0.00 | 0.00 | 64 | 985.8 |
| 20260505073543 | 11 | 29 | 1.6 | 1.6 | 0.00 | 0.00 | 0.00 | 65 | 986.1 |